Location: SE Lincoln, NE
(40.7805°N, 96.6275°W)
Time: 05:06:39
(UTC-05:00)

Cosmos 1515 Rocket - Pass Details

Date: 15 May 2021
Orbit: 606 x 630 km, 82.5° (Epoch: 20 June)

Event Time Altitude Azimuth Distance (km) Brightness Sun altitude
Exits shadow 21:25:25 - 155° (SSE) 2,211 5.9 -8.7°
Reaches altitude 10° 21:26:03 10° 151° (SSE) 1,984 5.6 -8.7°
Maximum altitude 21:29:54 30° 90° (E) 1,104 4.4 -9.3°
Drops below altitude 10° 21:33:45 10° 29° (NNE) 1,984 6.3 -9.9°
Sets 21:36:09 0° 19° (NNE) 2,890 7.2 -10.3°
